Time,TemperatureF,DewpointF,PressureIn,WindDirection,WindDirectionDegrees,WindSpeedMPH,WindSpeedGustMPH,Humidity,HourlyPrecipIn,Conditions,Clouds,dailyrainin,SoftwareType,DateUTC
2013-10-30 00:02:00,66.9,65.1,29.54,NNE,23,0.0,4.0,94,0.00,,,0.12,meteohub,2013-10-30 06:02:00,
2013-10-30 00:07:00,66.7,65.3,29.54,NNE,23,0.0,3.0,95,0.00,,,0.00,meteohub,2013-10-30 06:07:00,
2013-10-30 00:12:00,66.7,65.5,29.53,SW,225,0.0,1.0,96,0.00,,,0.00,meteohub,2013-10-30 06:12:00,
2013-10-30 00:17:00,66.6,65.3,29.53,WNW,293,0.0,3.0,96,0.00,,,0.00,meteohub,2013-10-30 06:17:00,
2013-10-30 00:22:00,66.4,65.1,29.53,SW,225,4.0,4.0,96,0.00,,,0.00,meteohub,2013-10-30 06:22:00,
2013-10-30 00:27:00,66.2,64.9,29.53,SW,225,4.0,4.0,96,0.00,,,0.00,meteohub,2013-10-30 06:27:00,
2013-10-30 00:32:00,66.4,65.1,29.53,NNE,23,0.0,5.0,96,0.00,,,0.00,meteohub,2013-10-30 06:32:00,
2013-10-30 00:37:00,66.6,65.1,29.52,SW,225,4.0,5.0,95,0.00,,,0.00,meteohub,2013-10-30 06:37:00,
2013-10-30 00:42:00,66.7,64.9,29.51,NNE,23,2.0,5.0,94,0.00,,,0.00,meteohub,2013-10-30 06:42:00,
2013-10-30 00:47:00,66.7,64.9,29.52,SW,225,1.0,5.0,94,0.00,,,0.00,meteohub,2013-10-30 06:47:00,
2013-10-30 00:52:00,66.7,64.9,29.52,NNE,23,3.0,5.0,94,0.00,,,0.00,meteohub,2013-10-30 06:52:00,
2013-10-30 00:57:00,66.7,64.9,29.52,SW,225,4.0,4.0,94,0.00,,,0.00,meteohub,2013-10-30 06:57:00,
2013-10-30 01:02:00,66.7,64.9,29.50,SW,225,6.0,6.0,94,0.00,,,0.00,meteohub,2013-10-30 07:02:00,
2013-10-30 01:07:00,66.7,64.9,29.51,SW,225,3.0,8.0,94,0.00,,,0.00,meteohub,2013-10-30 07:07:00,
2013-10-30 01:12:00,66.7,64.6,29.51,SW,225,4.0,8.0,93,0.00,,,0.00,meteohub,2013-10-30 07:12:00,
2013-10-30 01:17:00,66.7,64.6,29.51,NNE,23,3.0,8.0,93,0.00,,,0.00,meteohub,2013-10-30 07:17:00,
2013-10-30 01:22:00,66.7,64.6,29.51,NNE,23,0.0,7.0,93,0.00,,,0.00,meteohub,2013-10-30 07:22:00,
2013-10-30 01:27:00,66.7,64.6,29.51,NNE,23,0.0,5.0,93,0.00,,,0.00,meteohub,2013-10-30 07:27:00,
2013-10-30 01:32:00,66.9,64.6,29.51,North,-999,-999.0,3.0,92,0.00,,,0.00,meteohub,2013-10-30 07:32:00,
2013-10-30 01:37:00,67.1,64.4,29.50,NNE,23,2.0,4.0,91,0.00,,,0.00,meteohub,2013-10-30 07:37:00,
2013-10-30 01:42:00,66.9,64.2,29.51,NNE,23,0.0,4.0,91,0.00,,,0.00,meteohub,2013-10-30 07:42:00,
2013-10-30 01:47:00,66.7,64.0,29.52,WNW,293,0.0,4.0,91,0.00,,,0.00,meteohub,2013-10-30 07:47:00,
2013-10-30 01:52:00,66.6,64.2,29.51,WNW,293,0.0,2.0,92,0.00,,,0.00,meteohub,2013-10-30 07:52:00,
2013-10-30 01:57:00,66.4,64.0,29.52,WNW,293,0.0,0.0,92,0.00,,,0.00,meteohub,2013-10-30 07:57:00,
2013-10-30 02:02:00,66.4,64.2,29.51,WNW,293,0.0,0.0,93,0.00,,,0.00,meteohub,2013-10-30 08:02:00,
2013-10-30 02:07:00,66.4,64.2,29.52,WNW,293,0.0,0.0,93,0.00,,,0.00,meteohub,2013-10-30 08:07:00,
2013-10-30 02:12:00,66.2,64.4,29.51,WNW,293,0.0,0.0,94,0.00,,,0.00,meteohub,2013-10-30 08:12:00,
2013-10-30 02:18:00,66.2,64.4,29.52,WNW,293,0.0,0.0,94,0.00,,,0.00,meteohub,2013-10-30 08:18:00,
2013-10-30 02:23:00,66.6,64.8,29.52,SW,225,0.0,0.0,94,0.00,,,0.00,meteohub,2013-10-30 08:23:00,
2013-10-30 02:28:00,67.1,64.8,29.52,SW,225,5.0,5.0,92,0.00,,,0.00,meteohub,2013-10-30 08:28:00,
2013-10-30 02:33:00,67.3,63.9,29.52,SW,225,2.0,5.0,89,0.00,,,0.00,meteohub,2013-10-30 08:33:00,
2013-10-30 02:38:00,67.3,64.6,29.51,North,-999,-999.0,5.0,91,0.00,,,0.00,meteohub,2013-10-30 08:38:00,
2013-10-30 02:43:00,66.9,64.6,29.52,NW,315,0.0,5.0,92,0.00,,,0.00,meteohub,2013-10-30 08:43:00,
2013-10-30 02:48:00,66.9,64.6,29.52,WNW,293,0.0,2.0,92,0.00,,,0.00,meteohub,2013-10-30 08:48:00,
2013-10-30 02:53:00,66.7,64.4,29.50,WNW,293,0.0,1.0,92,0.00,,,0.00,meteohub,2013-10-30 08:53:00,
2013-10-30 02:58:00,66.7,64.0,29.51,NNE,23,0.0,0.0,91,0.00,,,0.00,meteohub,2013-10-30 08:58:00,
2013-10-30 03:03:00,66.9,63.9,29.50,WNW,293,0.0,0.0,90,0.00,,,0.00,meteohub,2013-10-30 09:03:00,
2013-10-30 03:08:00,66.9,63.5,29.52,WNW,293,0.0,0.0,89,0.00,,,0.00,meteohub,2013-10-30 09:08:00,
2013-10-30 03:13:00,66.9,63.0,29.51,SW,225,5.0,5.0,87,0.00,,,0.00,meteohub,2013-10-30 09:13:00,
2013-10-30 03:18:00,66.9,62.6,29.51,SW,225,4.0,5.0,86,0.00,,,0.00,meteohub,2013-10-30 09:18:00,
2013-10-30 03:23:00,67.1,62.8,29.52,SW,225,5.0,6.0,86,0.00,,,0.00,meteohub,2013-10-30 09:23:00,
2013-10-30 03:28:00,67.3,62.6,29.51,SW,225,5.0,9.0,85,0.00,,,0.00,meteohub,2013-10-30 09:28:00,
2013-10-30 03:33:00,67.5,62.4,29.52,WNW,293,7.0,9.0,84,0.00,,,0.00,meteohub,2013-10-30 09:33:00,
2013-10-30 03:38:00,67.5,62.4,29.52,NNE,23,0.0,9.0,84,0.00,,,0.00,meteohub,2013-10-30 09:38:00,
2013-10-30 03:43:00,67.1,62.4,29.52,NNE,23,0.0,9.0,85,0.00,,,0.00,meteohub,2013-10-30 09:43:00,
2013-10-30 03:48:00,66.7,62.8,29.52,WNW,293,0.0,9.0,87,0.00,,,0.00,meteohub,2013-10-30 09:48:00,
2013-10-30 03:53:00,66.4,62.4,29.51,WNW,293,0.0,4.0,87,0.00,,,0.00,meteohub,2013-10-30 09:53:00,
2013-10-30 03:58:00,66.2,62.2,29.52,WNW,293,0.0,0.0,87,0.00,,,0.00,meteohub,2013-10-30 09:58:00,
2013-10-30 04:03:00,65.8,62.4,29.52,NNE,23,0.0,0.0,89,0.00,,,0.00,meteohub,2013-10-30 10:03:00,
2013-10-30 04:08:00,66.0,62.6,29.52,SW,225,8.0,8.0,89,0.00,,,0.00,meteohub,2013-10-30 10:08:00,
2013-10-30 04:13:00,66.4,62.4,29.52,NNE,23,1.0,8.0,87,0.00,,,0.00,meteohub,2013-10-30 10:13:00,
2013-10-30 04:18:00,66.4,62.4,29.52,SW,225,4.0,8.0,87,0.00,,,0.00,meteohub,2013-10-30 10:18:00,
2013-10-30 04:23:00,66.2,62.2,29.52,WNW,293,0.0,8.0,87,0.00,,,0.00,meteohub,2013-10-30 10:23:00,
2013-10-30 04:28:00,65.8,62.2,29.52,SW,225,0.0,5.0,88,0.00,,,0.00,meteohub,2013-10-30 10:28:00,
2013-10-30 04:33:00,65.8,62.2,29.52,SW,225,0.0,5.0,88,0.00,,,0.00,meteohub,2013-10-30 10:33:00,
2013-10-30 04:38:00,65.7,62.1,29.52,WSW,248,0.0,5.0,88,0.00,,,0.00,meteohub,2013-10-30 10:38:00,
2013-10-30 04:43:00,65.5,61.9,29.53,NNE,23,6.0,6.0,88,0.00,,,0.00,meteohub,2013-10-30 10:43:00,
2013-10-30 04:48:00,65.3,62.1,29.54,NNE,23,8.0,8.0,89,0.00,,,0.00,meteohub,2013-10-30 10:48:00,
2013-10-30 04:54:00,65.3,62.1,29.53,SW,225,5.0,8.0,89,0.00,,,0.00,meteohub,2013-10-30 10:54:00,
2013-10-30 04:59:00,65.3,62.1,29.54,NNE,23,4.0,8.0,89,0.00,,,0.00,meteohub,2013-10-30 10:59:00,
2013-10-30 05:04:00,65.5,62.4,29.54,SW,225,9.0,9.0,90,0.00,,,0.00,meteohub,2013-10-30 11:04:00,
2013-10-30 05:09:00,66.0,63.0,29.54,SW,225,17.0,17.0,90,0.00,,,0.00,meteohub,2013-10-30 11:09:00,
2013-10-30 05:14:00,66.9,63.3,29.54,SW,225,20.0,20.0,88,0.00,,,0.00,meteohub,2013-10-30 11:14:00,
2013-10-30 05:19:00,67.3,63.0,29.54,SW,225,10.0,21.0,86,0.00,,,0.00,meteohub,2013-10-30 11:19:00,
2013-10-30 05:24:00,67.1,62.8,29.54,NNE,23,6.0,21.0,86,0.00,,,0.00,meteohub,2013-10-30 11:24:00,
2013-10-30 05:29:00,66.9,62.6,29.54,NNE,23,7.0,21.0,86,0.00,,,0.00,meteohub,2013-10-30 11:29:00,
2013-10-30 05:34:00,67.5,62.8,29.55,NNE,23,2.0,19.0,85,0.00,,,0.00,meteohub,2013-10-30 11:34:00,
2013-10-30 05:39:00,66.9,62.2,29.54,North,-999,-999.0,8.0,85,0.00,,,0.00,meteohub,2013-10-30 11:39:00,
2013-10-30 05:44:00,66.4,62.1,29.56,North,-999,-999.0,7.0,86,0.00,,,0.00,meteohub,2013-10-30 11:44:00,
2013-10-30 05:49:00,66.0,62.4,29.56,North,-999,-999.0,4.0,88,0.00,,,0.00,meteohub,2013-10-30 11:49:00,
2013-10-30 05:54:00,65.8,62.4,29.55,WNW,293,0.0,-999.0,89,0.00,,,0.00,meteohub,2013-10-30 11:54:00,
2013-10-30 05:59:00,66.2,62.6,29.55,WNW,293,0.0,0.0,88,0.00,,,0.00,meteohub,2013-10-30 11:59:00,
2013-10-30 06:04:00,66.7,62.8,29.56,WNW,293,2.0,0.0,87,0.00,,,0.00,meteohub,2013-10-30 12:04:00,
2013-10-30 06:09:00,67.5,63.5,29.57,West,270,0.0,4.0,87,0.00,,,0.00,meteohub,2013-10-30 12:09:00,
2013-10-30 06:14:00,68.0,63.3,29.56,West,270,4.0,4.0,85,0.00,,,0.00,meteohub,2013-10-30 12:14:00,
2013-10-30 06:19:00,68.0,63.3,29.56,NNE,23,6.0,6.0,85,0.00,,,0.00,meteohub,2013-10-30 12:19:00,
2013-10-30 06:24:00,68.4,63.7,29.56,NNE,23,7.0,11.0,85,0.00,,,0.00,meteohub,2013-10-30 12:24:00,
2013-10-30 06:29:00,68.4,63.7,29.56,NNE,23,5.0,11.0,85,0.00,,,0.00,meteohub,2013-10-30 12:29:00,
2013-10-30 06:34:00,68.7,63.7,29.56,NNE,23,4.0,11.0,84,0.00,,,0.00,meteohub,2013-10-30 12:34:00,
2013-10-30 06:39:00,69.4,64.4,29.57,West,270,0.0,8.0,84,0.00,,,0.00,meteohub,2013-10-30 12:39:00,
2013-10-30 06:44:00,70.0,63.5,29.57,West,270,4.0,5.0,80,0.00,,,0.00,meteohub,2013-10-30 12:44:00,
2013-10-30 06:49:00,70.3,63.5,29.57,West,270,5.0,5.0,79,0.00,,,0.00,meteohub,2013-10-30 12:49:00,
2013-10-30 06:55:00,71.4,64.6,29.57,WNW,293,1.0,5.0,79,0.00,,,0.00,meteohub,2013-10-30 12:55:00,
2013-10-30 07:00:00,72.0,64.0,29.58,West,270,4.0,5.0,76,0.00,,,0.00,meteohub,2013-10-30 13:00:00,
2013-10-30 07:05:00,72.3,63.9,29.57,West,270,4.0,5.0,75,0.00,,,0.00,meteohub,2013-10-30 13:05:00,
2013-10-30 07:10:00,72.7,63.9,29.57,NW,315,0.0,5.0,74,0.00,,,0.00,meteohub,2013-10-30 13:10:00,
2013-10-30 07:15:00,73.0,63.5,29.58,SW,225,5.0,5.0,72,0.00,,,0.00,meteohub,2013-10-30 13:15:00,
2013-10-30 07:20:00,73.4,64.6,29.56,WNW,293,6.0,8.0,74,0.00,,,0.00,meteohub,2013-10-30 13:20:00,
2013-10-30 07:25:00,73.8,64.6,29.57,SW,225,8.0,8.0,73,0.00,,,0.00,meteohub,2013-10-30 13:25:00,
2013-10-30 07:30:00,73.4,63.5,29.57,SW,225,8.0,8.0,71,0.00,,,0.00,meteohub,2013-10-30 13:30:00,
2013-10-30 07:35:00,73.4,64.6,29.57,WNW,293,8.0,10.0,74,0.00,,,0.00,meteohub,2013-10-30 13:35:00,
2013-10-30 07:40:00,73.0,63.9,29.57,SW,225,8.0,10.0,73,0.00,,,0.00,meteohub,2013-10-30 13:40:00,
2013-10-30 07:45:00,72.5,63.7,29.59,SW,225,13.0,13.0,74,0.00,,,0.00,meteohub,2013-10-30 13:45:00,
2013-10-30 07:50:00,71.8,63.5,29.58,WNW,293,11.0,13.0,75,0.00,,,0.00,meteohub,2013-10-30 13:50:00,
2013-10-30 07:55:00,71.4,63.9,29.57,SW,225,10.0,13.0,77,0.00,,,0.00,meteohub,2013-10-30 13:55:00,
2013-10-30 08:00:00,71.1,63.9,29.57,NNE,23,7.0,13.0,78,0.00,,,0.00,meteohub,2013-10-30 14:00:00,
2013-10-30 08:05:00,71.1,64.2,29.57,SW,225,10.0,11.0,79,0.00,,,0.00,meteohub,2013-10-30 14:05:00,
2013-10-30 08:10:00,71.6,64.0,29.57,WNW,293,8.0,13.0,77,0.00,,,0.00,meteohub,2013-10-30 14:10:00,
2013-10-30 08:15:00,72.9,64.4,29.57,SW,225,10.0,13.0,75,0.00,,,0.00,meteohub,2013-10-30 14:15:00,
2013-10-30 08:20:00,73.2,64.4,29.57,SW,225,11.0,13.0,74,0.00,,,0.00,meteohub,2013-10-30 14:20:00,
2013-10-30 08:25:00,73.8,64.9,29.56,SW,225,4.0,15.0,74,0.00,,,0.00,meteohub,2013-10-30 14:25:00,
2013-10-30 08:30:00,75.0,64.6,29.56,WNW,293,7.0,15.0,70,0.00,,,0.00,meteohub,2013-10-30 14:30:00,
2013-10-30 08:35:00,75.6,64.2,29.56,West,270,4.0,11.0,68,0.00,,,0.00,meteohub,2013-10-30 14:35:00,
2013-10-30 08:40:00,75.6,64.8,29.56,SW,225,8.0,12.0,69,0.00,,,0.00,meteohub,2013-10-30 14:40:00,
2013-10-30 08:45:00,75.6,64.8,29.55,WNW,293,10.0,12.0,69,0.00,,,0.00,meteohub,2013-10-30 14:45:00,
2013-10-30 08:50:00,75.4,64.6,29.55,WNW,293,4.0,12.0,69,0.00,,,0.00,meteohub,2013-10-30 14:50:00,
2013-10-30 08:55:00,75.7,64.4,29.55,WNW,293,11.0,12.0,68,0.00,,,0.00,meteohub,2013-10-30 14:55:00,
2013-10-30 09:00:00,75.7,64.4,29.55,NNE,23,2.0,11.0,68,0.00,,,0.00,meteohub,2013-10-30 15:00:00,
2013-10-30 09:06:00,76.5,64.2,29.55,SW,225,5.0,11.0,66,0.00,,,0.00,meteohub,2013-10-30 15:06:00,
2013-10-30 09:11:00,77.0,64.8,29.55,SW,225,11.0,11.0,66,0.00,,,0.00,meteohub,2013-10-30 15:11:00,
2013-10-30 09:16:00,75.7,64.8,29.55,SW,225,15.0,15.0,69,0.00,,,0.00,meteohub,2013-10-30 15:16:00,
2013-10-30 09:21:00,75.2,65.1,29.55,SW,225,15.0,15.0,71,0.00,,,0.00,meteohub,2013-10-30 15:21:00,
2013-10-30 09:26:00,75.0,64.9,29.55,SW,225,11.0,15.0,71,0.00,,,0.00,meteohub,2013-10-30 15:26:00,
2013-10-30 09:31:00,75.2,64.4,29.55,SW,225,15.0,16.0,69,0.00,,,0.00,meteohub,2013-10-30 15:31:00,
2013-10-30 09:36:00,75.4,64.9,29.55,SW,225,13.0,16.0,70,0.00,,,0.00,meteohub,2013-10-30 15:36:00,
2013-10-30 09:41:00,75.7,65.3,29.54,SW,225,12.0,15.0,70,0.00,,,0.00,meteohub,2013-10-30 15:41:00,
2013-10-30 09:46:00,76.1,64.8,29.54,SW,225,10.0,15.0,68,0.00,,,0.00,meteohub,2013-10-30 15:46:00,
2013-10-30 09:51:00,75.6,65.1,29.53,NNE,23,14.0,15.0,70,0.00,,,0.00,meteohub,2013-10-30 15:51:00,
2013-10-30 09:56:00,74.8,65.1,29.55,SW,225,9.0,15.0,72,0.00,,,0.00,meteohub,2013-10-30 15:56:00,
2013-10-30 10:01:00,75.4,65.7,29.53,NNE,23,13.0,15.0,72,0.00,,,0.00,meteohub,2013-10-30 16:01:00,
2013-10-30 10:06:00,75.4,64.9,29.53,SW,225,13.0,15.0,70,0.00,,,0.00,meteohub,2013-10-30 16:06:00,
2013-10-30 10:11:00,75.2,65.1,29.53,WNW,293,8.0,14.0,71,0.00,,,0.00,meteohub,2013-10-30 16:11:00,
2013-10-30 10:16:00,75.2,65.1,29.52,WNW,293,12.0,14.0,71,0.00,,,0.00,meteohub,2013-10-30 16:16:00,
2013-10-30 10:21:00,74.8,65.1,29.52,NNW,338,11.0,14.0,72,0.00,,,0.00,meteohub,2013-10-30 16:21:00,
2013-10-30 10:26:00,74.1,65.7,29.52,SE,135,13.0,14.0,75,0.00,,,0.00,meteohub,2013-10-30 16:26:00,
2013-10-30 10:31:00,73.8,65.3,29.52,NNE,23,13.0,15.0,75,0.00,,,0.00,meteohub,2013-10-30 16:31:00,
2013-10-30 10:36:00,73.6,65.1,29.51,SW,225,13.0,15.0,75,0.00,,,0.00,meteohub,2013-10-30 16:36:00,
2013-10-30 10:41:00,73.6,65.5,29.52,SW,225,8.0,17.0,76,0.00,,,0.00,meteohub,2013-10-30 16:41:00,
2013-10-30 10:46:00,73.8,65.7,29.52,SW,225,14.0,17.0,76,0.00,,,0.00,meteohub,2013-10-30 16:46:00,
2013-10-30 10:51:00,73.8,65.7,29.52,NNE,23,7.0,14.0,76,0.00,,,0.00,meteohub,2013-10-30 16:51:00,
2013-10-30 10:56:00,74.3,65.8,29.52,SW,225,14.0,14.0,75,0.00,,,0.00,meteohub,2013-10-30 16:56:00,
2013-10-30 11:02:00,74.3,65.5,29.52,WNW,293,13.0,17.0,74,0.00,,,0.00,meteohub,2013-10-30 17:02:00,
2013-10-30 11:07:00,74.3,65.5,29.51,WNW,293,14.0,17.0,74,0.00,,,0.00,meteohub,2013-10-30 17:07:00,
2013-10-30 11:12:00,74.1,65.3,29.52,SW,225,14.0,17.0,74,0.00,,,0.00,meteohub,2013-10-30 17:12:00,
2013-10-30 11:17:00,74.1,65.3,29.50,SW,225,17.0,17.0,74,0.00,,,0.00,meteohub,2013-10-30 17:17:00,
2013-10-30 11:22:00,74.1,65.3,29.51,SW,225,17.0,17.0,74,0.00,,,0.00,meteohub,2013-10-30 17:22:00,
2013-10-30 11:27:00,74.3,65.5,29.50,WNW,293,7.0,19.0,74,0.00,,,0.00,meteohub,2013-10-30 17:27:00,
2013-10-30 11:32:00,74.8,66.0,29.49,SW,225,15.0,19.0,74,0.00,,,0.00,meteohub,2013-10-30 17:32:00,
2013-10-30 11:37:00,75.2,65.1,29.50,SW,225,14.0,17.0,71,0.00,,,0.00,meteohub,2013-10-30 17:37:00,
2013-10-30 11:42:00,75.9,65.5,29.50,SW,225,13.0,15.0,70,0.00,,,0.00,meteohub,2013-10-30 17:42:00,
2013-10-30 11:47:00,76.6,65.7,29.49,SW,225,15.0,15.0,69,0.00,,,0.00,meteohub,2013-10-30 17:47:00,
2013-10-30 11:52:00,76.8,65.5,29.48,SW,225,7.0,15.0,68,0.00,,,0.00,meteohub,2013-10-30 17:52:00,
2013-10-30 11:57:00,77.0,65.1,29.49,SW,225,14.0,16.0,67,0.00,,,0.00,meteohub,2013-10-30 17:57:00,
2013-10-30 12:02:00,76.6,65.3,29.48,SW,225,15.0,16.0,68,0.00,,,0.00,meteohub,2013-10-30 18:02:00,
2013-10-30 12:07:00,76.1,65.1,29.49,SW,225,17.0,17.0,69,0.00,,,0.00,meteohub,2013-10-30 18:07:00,
2013-10-30 12:12:00,75.9,65.5,29.47,SW,225,8.0,17.0,70,0.00,,,0.00,meteohub,2013-10-30 18:12:00,
2013-10-30 12:17:00,75.9,65.5,29.47,SW,225,12.0,17.0,70,0.00,,,0.00,meteohub,2013-10-30 18:17:00,
2013-10-30 12:22:00,75.7,66.0,29.47,WNW,293,10.0,17.0,72,0.00,,,0.00,meteohub,2013-10-30 18:22:00,
2013-10-30 12:27:00,75.4,65.7,29.48,SW,225,10.0,17.0,72,0.00,,,0.00,meteohub,2013-10-30 18:27:00,
2013-10-30 12:32:00,75.4,65.7,29.47,SW,225,11.0,17.0,72,0.00,,,0.00,meteohub,2013-10-30 18:32:00,
2013-10-30 12:37:00,75.4,65.7,29.47,SW,225,12.0,17.0,72,0.00,,,0.00,meteohub,2013-10-30 18:37:00,
2013-10-30 12:42:00,76.3,66.2,29.47,WNW,293,11.0,15.0,71,0.00,,,0.00,meteohub,2013-10-30 18:42:00,
2013-10-30 12:47:00,78.1,66.2,29.46,WNW,293,12.0,15.0,67,0.00,,,0.00,meteohub,2013-10-30 18:47:00,
2013-10-30 12:52:00,78.8,66.0,29.44,SW,225,15.0,17.0,65,0.00,,,0.00,meteohub,2013-10-30 18:52:00,
2013-10-30 12:57:00,78.4,65.7,29.44,SW,225,13.0,17.0,65,0.00,,,0.00,meteohub,2013-10-30 18:57:00,
2013-10-30 13:02:00,79.0,65.8,29.44,SW,225,17.0,17.0,64,0.00,,,0.00,meteohub,2013-10-30 19:02:00,
2013-10-30 13:08:00,78.8,65.1,29.43,SW,225,15.0,17.0,63,0.00,,,0.00,meteohub,2013-10-30 19:08:00,
2013-10-30 13:13:00,78.1,65.8,29.42,SW,225,17.0,17.0,66,0.00,,,0.00,meteohub,2013-10-30 19:13:00,
2013-10-30 13:18:00,77.4,65.5,29.43,SW,225,12.0,17.0,67,0.00,,,0.00,meteohub,2013-10-30 19:18:00,
2013-10-30 13:23:00,76.8,66.2,29.43,SW,225,7.0,18.0,70,0.00,,,0.00,meteohub,2013-10-30 19:23:00,
2013-10-30 13:28:00,77.2,65.3,29.43,WNW,293,12.0,18.0,67,0.00,,,0.00,meteohub,2013-10-30 19:28:00,
2013-10-30 13:34:00,77.0,65.1,29.42,NNE,23,14.0,18.0,67,0.00,,,0.00,meteohub,2013-10-30 19:34:00,
2013-10-30 13:39:00,77.4,66.0,29.42,SW,225,10.0,17.0,68,0.00,,,0.00,meteohub,2013-10-30 19:39:00,
2013-10-30 13:44:00,78.1,65.3,29.42,WNW,293,15.0,17.0,65,0.00,,,0.00,meteohub,2013-10-30 19:44:00,
2013-10-30 13:49:00,77.4,65.1,29.41,SW,225,15.0,17.0,66,0.00,,,0.00,meteohub,2013-10-30 19:49:00,
2013-10-30 13:54:00,77.2,65.3,29.42,SW,225,8.0,17.0,67,0.00,,,0.00,meteohub,2013-10-30 19:54:00,
2013-10-30 13:59:00,77.2,64.9,29.41,SW,225,11.0,17.0,66,0.00,,,0.00,meteohub,2013-10-30 19:59:00,
2013-10-30 14:04:00,77.0,65.1,29.40,SW,225,16.0,17.0,67,0.00,,,0.00,meteohub,2013-10-30 20:04:00,
2013-10-30 14:09:00,77.5,65.3,29.41,NNE,23,13.0,17.0,66,0.00,,,0.00,meteohub,2013-10-30 20:09:00,
2013-10-30 14:14:00,77.9,65.7,29.41,SW,225,17.0,17.0,66,0.00,,,0.00,meteohub,2013-10-30 20:14:00,
2013-10-30 14:19:00,77.7,65.5,29.40,SW,225,15.0,18.0,66,0.00,,,0.00,meteohub,2013-10-30 20:19:00,
2013-10-30 14:24:00,77.5,65.3,29.41,SW,225,15.0,18.0,66,0.00,,,0.00,meteohub,2013-10-30 20:24:00,
2013-10-30 14:29:00,77.5,65.3,29.40,SW,225,11.0,21.0,66,0.00,,,0.00,meteohub,2013-10-30 20:29:00,
2013-10-30 14:34:00,77.4,65.5,29.41,WNW,293,15.0,21.0,67,0.00,,,0.00,meteohub,2013-10-30 20:34:00,
2013-10-30 14:39:00,77.7,65.5,29.41,SW,225,15.0,21.0,66,0.00,,,0.00,meteohub,2013-10-30 20:39:00,
2013-10-30 14:44:00,78.1,65.8,29.40,WNW,293,11.0,17.0,66,0.00,,,0.00,meteohub,2013-10-30 20:44:00,
2013-10-30 14:49:00,77.7,65.8,29.41,SW,225,17.0,17.0,67,0.00,,,0.00,meteohub,2013-10-30 20:49:00,
2013-10-30 14:54:00,77.2,65.8,29.39,SW,225,9.0,19.0,68,0.00,,,0.00,meteohub,2013-10-30 20:54:00,
2013-10-30 14:59:00,77.4,66.0,29.40,WNW,293,15.0,19.0,68,0.00,,,0.00,meteohub,2013-10-30 20:59:00,
2013-10-30 15:04:00,77.7,66.4,29.40,WNW,293,17.0,19.0,68,0.00,,,0.00,meteohub,2013-10-30 21:04:00,
2013-10-30 15:09:00,77.7,66.4,29.40,SW,225,19.0,19.0,68,0.00,,,0.00,meteohub,2013-10-30 21:09:00,
2013-10-30 15:14:00,77.2,65.8,29.40,SW,225,19.0,19.0,68,0.00,,,0.00,meteohub,2013-10-30 21:14:00,
2013-10-30 15:19:00,76.6,66.6,29.41,SW,225,17.0,20.0,71,0.00,,,0.00,meteohub,2013-10-30 21:19:00,
2013-10-30 15:24:00,76.1,66.0,29.41,SW,225,8.0,21.0,71,0.00,,,0.00,meteohub,2013-10-30 21:24:00,
2013-10-30 15:29:00,75.9,65.8,29.41,SW,225,15.0,21.0,71,0.00,,,0.00,meteohub,2013-10-30 21:29:00,
2013-10-30 15:34:00,75.7,65.7,29.41,SW,225,19.0,21.0,71,0.00,,,0.00,meteohub,2013-10-30 21:34:00,
2013-10-30 15:39:00,75.0,66.6,29.42,SW,225,14.0,21.0,75,0.00,,,0.00,meteohub,2013-10-30 21:39:00,
2013-10-30 15:44:00,74.7,66.6,29.42,WNW,293,14.0,19.0,76,0.00,,,0.00,meteohub,2013-10-30 21:44:00,
2013-10-30 15:50:00,74.5,66.7,29.43,SW,225,13.0,20.0,77,0.00,,,0.00,meteohub,2013-10-30 21:50:00,
2013-10-30 15:55:00,74.5,66.4,29.44,WNW,293,15.0,20.0,76,0.00,,,0.00,meteohub,2013-10-30 21:55:00,
2013-10-30 16:00:00,73.9,65.8,29.44,SW,225,15.0,20.0,76,0.00,,,0.00,meteohub,2013-10-30 22:00:00,
2013-10-30 16:05:00,73.9,66.2,29.44,WNW,293,15.0,18.0,77,0.00,,,0.00,meteohub,2013-10-30 22:05:00,
2013-10-30 16:10:00,73.9,66.2,29.46,WNW,293,11.0,18.0,77,0.00,,,0.00,meteohub,2013-10-30 22:10:00,
2013-10-30 16:15:00,73.8,66.0,29.47,SW,225,8.0,18.0,77,0.00,,,0.00,meteohub,2013-10-30 22:15:00,
2013-10-30 16:20:00,73.8,66.0,29.46,WNW,293,10.0,15.0,77,0.00,,,0.00,meteohub,2013-10-30 22:20:00,
2013-10-30 16:25:00,73.6,65.8,29.46,WNW,293,10.0,13.0,77,0.00,,,0.00,meteohub,2013-10-30 22:25:00,
2013-10-30 16:30:00,73.4,65.7,29.47,WNW,293,11.0,13.0,77,0.00,,,0.00,meteohub,2013-10-30 22:30:00,
2013-10-30 16:35:00,73.2,65.7,29.47,SW,225,8.0,13.0,77,0.00,,,0.00,meteohub,2013-10-30 22:35:00,
2013-10-30 16:40:00,72.9,66.4,29.46,SW,225,11.0,13.0,80,0.00,,,0.00,meteohub,2013-10-30 22:40:00,
2013-10-30 16:45:00,72.5,66.4,29.47,SW,225,11.0,13.0,81,0.00,,,0.00,meteohub,2013-10-30 22:45:00,
2013-10-30 16:50:00,72.1,66.4,29.46,WNW,293,11.0,13.0,82,0.00,,,0.00,meteohub,2013-10-30 22:50:00,
2013-10-30 16:55:00,71.8,66.4,29.46,SW,225,11.0,13.0,83,0.00,,,0.00,meteohub,2013-10-30 22:55:00,
2013-10-30 17:00:00,71.6,66.2,29.46,WNW,293,10.0,13.0,83,0.00,,,0.00,meteohub,2013-10-30 23:00:00,
2013-10-30 17:06:00,71.6,66.2,29.47,SW,225,4.0,13.0,83,0.00,,,0.00,meteohub,2013-10-30 23:06:00,
2013-10-30 17:11:00,71.4,66.4,29.47,WNW,293,4.0,13.0,84,0.00,,,0.00,meteohub,2013-10-30 23:11:00,
2013-10-30 17:16:00,71.4,67.1,29.47,WNW,293,4.0,13.0,86,0.00,,,0.00,meteohub,2013-10-30 23:16:00,
2013-10-30 17:21:00,71.2,67.1,29.47,WNW,293,4.0,8.0,87,0.00,,,0.00,meteohub,2013-10-30 23:21:00,
2013-10-30 17:26:00,71.1,67.3,29.47,NW,315,5.0,7.0,88,0.00,,,0.00,meteohub,2013-10-30 23:26:00,
2013-10-30 17:31:00,71.1,68.4,29.48,NW,315,3.0,7.0,91,0.00,,,0.00,meteohub,2013-10-30 23:31:00,
2013-10-30 17:36:00,70.7,68.2,29.48,West,270,2.0,7.0,92,0.00,,,0.00,meteohub,2013-10-30 23:36:00,
2013-10-30 17:41:00,70.5,68.0,29.48,NW,315,2.0,7.0,92,0.00,,,0.00,meteohub,2013-10-30 23:41:00,
2013-10-30 17:46:00,70.5,68.4,29.48,NW,315,4.0,4.0,93,0.00,,,0.00,meteohub,2013-10-30 23:46:00,
2013-10-30 17:51:00,70.3,68.2,29.49,NW,315,2.0,4.0,93,0.00,,,0.00,meteohub,2013-10-30 23:51:00,
2013-10-30 17:56:00,70.3,68.5,29.50,West,270,0.0,6.0,94,0.00,,,0.00,meteohub,2013-10-30 23:56:00,
2013-10-30 18:01:00,70.3,68.5,29.50,WNW,293,3.0,6.0,94,0.00,,,0.00,meteohub,2013-10-31 00:01:00,
2013-10-30 18:06:00,70.0,68.2,29.50,NW,315,3.0,6.0,94,0.00,,,0.00,meteohub,2013-10-31 00:06:00,
2013-10-30 18:11:00,70.0,68.2,29.51,NW,315,0.0,5.0,94,0.00,,,0.00,meteohub,2013-10-31 00:11:00,
2013-10-30 18:16:00,70.0,68.2,29.51,WNW,293,0.0,3.0,94,0.00,,,0.00,meteohub,2013-10-31 00:16:00,
2013-10-30 18:21:00,69.8,68.0,29.52,NW,315,0.0,3.0,94,0.00,,,0.00,meteohub,2013-10-31 00:21:00,
2013-10-30 18:26:00,70.0,68.5,29.53,WNW,293,0.0,2.0,95,0.00,,,0.00,meteohub,2013-10-31 00:26:00,
2013-10-30 18:31:00,69.8,68.4,29.53,NW,315,3.0,3.0,95,0.00,,,0.00,meteohub,2013-10-31 00:31:00,
2013-10-30 18:36:00,69.8,68.4,29.53,WNW,293,3.0,4.0,95,0.00,,,0.00,meteohub,2013-10-31 00:36:00,
2013-10-30 18:41:00,70.0,68.5,29.53,NW,315,0.0,4.0,95,0.00,,,0.00,meteohub,2013-10-31 00:41:00,
2013-10-30 18:46:00,70.0,68.5,29.54,NW,315,0.0,4.0,95,0.00,,,0.00,meteohub,2013-10-31 00:46:00,
2013-10-30 18:51:00,70.2,68.7,29.54,NW,315,0.0,3.0,95,0.00,,,0.00,meteohub,2013-10-31 00:51:00,
2013-10-30 18:56:00,69.8,68.4,29.54,WNW,293,0.0,2.0,95,0.00,,,0.00,meteohub,2013-10-31 00:56:00,
2013-10-30 19:01:00,70.0,68.5,29.54,SW,225,0.0,2.0,95,0.00,,,0.00,meteohub,2013-10-31 01:01:00,
2013-10-30 19:06:00,70.0,68.5,29.54,WNW,293,1.0,2.0,95,0.00,,,0.00,meteohub,2013-10-31 01:06:00,
2013-10-30 19:11:00,69.8,68.4,29.55,WNW,293,0.0,2.0,95,0.00,,,0.00,meteohub,2013-10-31 01:11:00,
2013-10-30 19:16:00,69.8,68.4,29.54,WNW,293,0.0,2.0,95,0.00,,,0.00,meteohub,2013-10-31 01:16:00,
2013-10-30 19:22:00,69.8,68.4,29.55,WNW,293,0.0,2.0,95,0.00,,,0.00,meteohub,2013-10-31 01:22:00,
2013-10-30 19:27:00,69.8,68.4,29.55,NW,315,0.0,0.0,95,0.00,,,0.00,meteohub,2013-10-31 01:27:00,
2013-10-30 19:32:00,70.0,68.7,29.57,WNW,293,0.0,0.0,96,0.00,,,0.00,meteohub,2013-10-31 01:32:00,
2013-10-30 19:37:00,70.0,68.7,29.56,WNW,293,2.0,0.0,96,0.00,,,0.00,meteohub,2013-10-31 01:37:00,
2013-10-30 19:42:00,69.8,68.4,29.55,NW,315,0.0,2.0,95,0.00,,,0.00,meteohub,2013-10-31 01:42:00,
2013-10-30 19:47:00,69.8,68.4,29.55,WNW,293,0.0,2.0,95,0.00,,,0.00,meteohub,2013-10-31 01:47:00,
2013-10-30 19:52:00,70.0,68.5,29.57,NW,315,0.0,2.0,95,0.00,,,0.00,meteohub,2013-10-31 01:52:00,
2013-10-30 19:57:00,70.0,68.5,29.57,West,270,0.0,2.0,95,0.00,,,0.00,meteohub,2013-10-31 01:57:00,
2013-10-30 20:02:00,70.0,68.5,29.57,West,270,1.0,2.0,95,0.00,,,0.00,meteohub,2013-10-31 02:02:00,
2013-10-30 20:07:00,70.0,68.5,29.57,NW,315,0.0,2.0,95,0.00,,,0.00,meteohub,2013-10-31 02:07:00,
2013-10-30 20:12:00,69.8,68.4,29.57,WNW,293,0.0,2.0,95,0.00,,,0.00,meteohub,2013-10-31 02:12:00,
2013-10-30 20:17:00,69.6,68.4,29.57,WNW,293,0.0,2.0,96,0.00,,,0.00,meteohub,2013-10-31 02:17:00,
2013-10-30 20:22:00,69.6,68.4,29.57,West,270,0.0,2.0,96,0.00,,,0.00,meteohub,2013-10-31 02:22:00,
2013-10-30 20:27:00,69.4,68.2,29.56,West,270,0.0,0.0,96,0.00,,,0.00,meteohub,2013-10-31 02:27:00,
2013-10-30 20:32:00,69.3,68.0,29.56,NW,315,0.0,0.0,96,0.00,,,0.00,meteohub,2013-10-31 02:32:00,
2013-10-30 20:37:00,69.3,68.0,29.56,WNW,293,0.0,0.0,96,0.00,,,0.00,meteohub,2013-10-31 02:37:00,
2013-10-30 20:42:00,69.1,67.8,29.55,NW,315,1.0,0.0,96,0.00,,,0.00,meteohub,2013-10-31 02:42:00,
2013-10-30 20:47:00,68.9,67.6,29.55,NW,315,0.0,1.0,96,0.00,,,0.00,meteohub,2013-10-31 02:47:00,
2013-10-30 20:52:00,68.9,68.0,29.56,WNW,293,4.0,4.0,97,0.00,,,0.00,meteohub,2013-10-31 02:52:00,
2013-10-30 20:57:00,68.9,68.0,29.55,NW,315,6.0,6.0,97,0.00,,,0.00,meteohub,2013-10-31 02:57:00,
2013-10-30 21:00:00,68.9,68.0,29.55,West,270,0.0,4.0,97,0.00,,,0.00,meteohub,2013-10-31 03:00:00,
2013-10-30 21:05:00,68.7,67.8,29.56,West,270,2.0,6.0,97,0.00,,,0.00,meteohub,2013-10-31 03:05:00,
2013-10-30 21:10:00,68.7,67.8,29.55,NNE,23,0.0,6.0,97,0.00,,,0.00,meteohub,2013-10-31 03:10:00,
2013-10-30 21:15:00,68.7,67.8,29.55,NW,315,0.0,6.0,97,0.00,,,0.00,meteohub,2013-10-31 03:15:00,
2013-10-30 21:20:00,68.7,67.8,29.55,NW,315,0.0,6.0,97,0.00,,,0.00,meteohub,2013-10-31 03:20:00,
2013-10-30 21:25:00,68.7,67.8,29.55,NW,315,2.0,6.0,97,0.00,,,0.00,meteohub,2013-10-31 03:25:00,
2013-10-30 21:30:00,68.7,67.8,29.55,West,270,2.0,2.0,97,0.00,,,0.00,meteohub,2013-10-31 03:30:00,
2013-10-30 21:35:00,68.5,67.6,29.55,NW,315,4.0,5.0,97,0.00,,,0.00,meteohub,2013-10-31 03:35:00,
2013-10-30 21:40:00,68.5,67.6,29.55,NW,315,0.0,6.0,97,0.00,,,0.00,meteohub,2013-10-31 03:40:00,
2013-10-30 21:45:00,68.4,67.5,29.54,West,270,0.0,6.0,97,0.00,,,0.00,meteohub,2013-10-31 03:45:00,
2013-10-30 21:50:00,68.2,67.3,29.54,NW,315,0.0,6.0,97,0.00,,,0.00,meteohub,2013-10-31 03:50:00,
2013-10-30 21:55:00,68.0,67.5,29.54,WNW,293,0.0,4.0,98,0.00,,,0.00,meteohub,2013-10-31 03:55:00,
2013-10-30 22:00:00,68.0,67.5,29.52,NW,315,0.0,4.0,98,0.00,,,0.00,meteohub,2013-10-31 04:00:00,
2013-10-30 22:01:00,68.0,67.5,29.52,West,270,0.0,4.0,98,0.00,,,0.00,meteohub,2013-10-31 04:01:00,
2013-10-30 22:02:00,68.0,67.5,29.52,NW,315,4.0,4.0,98,0.00,,,0.00,meteohub,2013-10-31 04:02:00,
2013-10-30 22:07:00,67.8,67.5,29.52,NW,315,2.0,4.0,99,0.00,,,0.00,meteohub,2013-10-31 04:07:00,
2013-10-30 22:12:00,67.6,67.3,29.53,NW,315,1.0,5.0,99,0.00,,,0.00,meteohub,2013-10-31 04:12:00,
2013-10-30 22:17:00,67.8,67.5,29.52,NW,315,2.0,5.0,99,0.00,,,0.00,meteohub,2013-10-31 04:17:00,
2013-10-30 22:22:00,67.8,67.5,29.52,NW,315,2.0,4.0,99,0.00,,,0.00,meteohub,2013-10-31 04:22:00,
2013-10-30 22:27:00,67.8,67.5,29.52,NW,315,0.0,4.0,99,0.00,,,0.00,meteohub,2013-10-31 04:27:00,
2013-10-30 22:32:00,67.8,67.5,29.52,WNW,293,0.0,4.0,99,0.00,,,0.00,meteohub,2013-10-31 04:32:00,
2013-10-30 22:38:00,67.8,67.5,29.52,West,270,4.0,4.0,99,0.00,,,0.00,meteohub,2013-10-31 04:38:00,
2013-10-30 22:43:00,67.6,67.3,29.52,NW,315,4.0,4.0,99,0.00,,,0.00,meteohub,2013-10-31 04:43:00,
2013-10-30 22:48:00,67.6,67.3,29.51,West,270,0.0,4.0,99,0.00,,,0.00,meteohub,2013-10-31 04:48:00,
2013-10-30 22:52:00,67.6,67.3,29.52,WNW,293,0.0,4.0,99,0.00,,,0.00,meteohub,2013-10-31 04:52:00,
2013-10-30 22:57:00,67.6,67.3,29.50,WNW,293,0.0,4.0,99,0.00,,,0.00,meteohub,2013-10-31 04:57:00,
2013-10-30 23:02:00,67.6,67.3,29.50,West,270,0.0,0.0,99,0.00,,,0.00,meteohub,2013-10-31 05:02:00,
2013-10-30 23:07:00,67.6,67.3,29.51,NW,315,0.0,0.0,99,0.00,,,0.00,meteohub,2013-10-31 05:07:00,
2013-10-30 23:12:00,67.6,67.3,29.50,WNW,293,0.0,0.0,99,0.00,,,0.00,meteohub,2013-10-31 05:12:00,
2013-10-30 23:18:00,67.6,67.3,29.51,WNW,293,0.0,0.0,99,0.00,,,0.00,meteohub,2013-10-31 05:18:00,
2013-10-30 23:23:00,67.5,67.1,29.50,West,270,0.0,0.0,99,0.00,,,0.00,meteohub,2013-10-31 05:23:00,
2013-10-30 23:28:00,67.5,67.1,29.50,NW,315,0.0,0.0,99,0.00,,,0.00,meteohub,2013-10-31 05:28:00,
2013-10-30 23:33:00,67.5,67.1,29.50,NW,315,0.0,0.0,99,0.00,,,0.00,meteohub,2013-10-31 05:33:00,
2013-10-30 23:38:00,67.5,67.1,29.50,WNW,293,0.0,0.0,99,0.00,,,0.00,meteohub,2013-10-31 05:38:00,
2013-10-30 23:43:00,67.5,67.1,29.51,WNW,293,0.0,0.0,99,0.00,,,0.00,meteohub,2013-10-31 05:43:00,
2013-10-30 23:48:00,67.5,67.1,29.51,WNW,293,3.0,0.0,99,0.00,,,0.00,meteohub,2013-10-31 05:48:00,
2013-10-30 23:53:00,67.3,66.9,29.51,WNW,293,4.0,4.0,99,0.00,,,0.00,meteohub,2013-10-31 05:53:00,
2013-10-30 23:58:00,67.3,66.9,29.50,WSW,248,0.0,4.0,99,0.00,,,0.00,meteohub,2013-10-31 05:58:00,